TimeEST,TemperatureF,Dew PointF,Humidity,Sea Level PressureIn,VisibilityMPH,Wind Direction,Wind SpeedMPH,Gust SpeedMPH,PrecipitationIn,Events,Conditions,WindDirDegrees,DateUTC
12:53 AM,30.9,28.9,92,30.16,2.5,SE,4.6,-,N/A,,Clear,130,2012-11-09 05:53:00
1:11 AM,30.2,28.4,93,30.14,3.0,SE,4.6,-,N/A,,Clear,130,2012-11-09 06:11:00
1:53 AM,30.9,28.0,89,30.16,3.0,SSE,4.6,-,N/A,,Clear,150,2012-11-09 06:53:00
2:29 AM,30.2,28.4,93,30.15,2.5,Calm,Calm,-,N/A,,Clear,0,2012-11-09 07:29:00
2:53 AM,30.9,28.9,92,30.17,2.5,East,3.5,-,N/A,,Clear,100,2012-11-09 07:53:00
3:08 AM,30.2,28.4,93,30.16,3.0,ESE,3.5,-,N/A,,Clear,110,2012-11-09 08:08:00
3:34 AM,30.2,28.4,93,30.16,2.5,SE,3.5,-,N/A,,Clear,130,2012-11-09 08:34:00
3:53 AM,30.0,28.0,92,30.18,2.0,SE,3.5,-,N/A,,Clear,140,2012-11-09 08:53:00
4:53 AM,30.0,28.0,92,30.19,2.5,SE,3.5,-,N/A,,Clear,140,2012-11-09 09:53:00
5:53 AM,32.0,30.0,92,30.20,2.5,SSE,4.6,-,N/A,,Clear,150,2012-11-09 10:53:00
6:35 AM,30.2,28.4,93,30.19,3.0,SSE,4.6,-,N/A,,Clear,150,2012-11-09 11:35:00
6:53 AM,33.1,30.9,92,30.21,3.0,SSE,5.8,-,N/A,,Clear,150,2012-11-09 11:53:00
7:23 AM,33.8,30.2,87,30.19,2.0,SSE,6.9,-,N/A,,Clear,150,2012-11-09 12:23:00
7:53 AM,35.1,32.0,89,30.21,2.0,SSE,8.1,-,N/A,,Clear,150,2012-11-09 12:53:00
8:53 AM,41.0,37.0,86,30.22,3.0,South,8.1,-,N/A,,Clear,170,2012-11-09 13:53:00
9:53 AM,46.0,39.0,76,30.21,5.0,South,11.5,-,N/A,,Haze,190,2012-11-09 14:53:00
10:53 AM,51.1,39.9,66,30.20,7.0,South,15.0,-,N/A,,Clear,180,2012-11-09 15:53:00
11:53 AM,54.0,41.0,62,30.18,10.0,South,13.8,-,N/A,,Clear,180,2012-11-09 16:53:00
12:53 PM,57.0,41.0,55,30.14,10.0,South,16.1,-,N/A,,Clear,180,2012-11-09 17:53:00
1:53 PM,59.0,41.0,51,30.11,10.0,South,18.4,-,N/A,,Clear,180,2012-11-09 18:53:00
2:53 PM,61.0,41.0,48,30.09,10.0,South,18.4,-,N/A,,Clear,180,2012-11-09 19:53:00
3:53 PM,61.0,41.0,48,30.09,10.0,South,13.8,20.7,N/A,,Scattered Clouds,170,2012-11-09 20:53:00
4:53 PM,59.0,39.9,49,30.08,10.0,South,12.7,-,N/A,,Overcast,170,2012-11-09 21:53:00
5:53 PM,55.9,39.9,55,30.07,10.0,SSE,12.7,-,N/A,,Partly Cloudy,160,2012-11-09 22:53:00
6:53 PM,54.0,39.9,59,30.07,10.0,SSE,11.5,-,N/A,,Clear,150,2012-11-09 23:53:00
7:53 PM,54.0,39.9,59,30.07,10.0,SSE,12.7,-,N/A,,Clear,160,2012-11-10 00:53:00
8:53 PM,52.0,39.9,63,30.06,10.0,SSE,11.5,-,N/A,,Clear,160,2012-11-10 01:53:00
9:53 PM,52.0,39.9,63,30.07,10.0,SSE,13.8,-,N/A,,Clear,160,2012-11-10 02:53:00
10:53 PM,54.0,39.9,59,30.06,10.0,South,12.7,-,N/A,,Clear,180,2012-11-10 03:53:00
11:53 PM,53.1,39.9,61,30.06,10.0,South,11.5,-,N/A,,Clear,180,2012-11-10 04:53:00